[[{"header":{"parameterUnit":"m.s-1","parameterCategory":1,"la1":30.2991,"la2":30.254,"lo1":-89.0895,"lo2":-89.0444,"dy":0.0017,"dx":0.0017,"nx":28,"ny":28,"refTime":"2024-07-05T03:00:00:Z","depth":0,"parameterNumber":2,"parameterNumberName":"U-component_of_WINDS"},"data":[0,0,0,0,0,0,0,0,0,0,0,0,0,0,0,0,0,0,0,0,0,0,0,0,0,0,0,0,0,0,0,0,0,0,0,0,0,0,0,0,0,0,0,0,0,0,0,0,0,0,0,0,0,0,0,0,0,0,3.676,3.6761,0,3.6818,3.6819,3.6819,3.6796,3.6795,3.6793,3.6792,3.6854,3.6857,3.686,0,0,0,0,0,0,0,0,0,0,0,0,0,3.6634,3.6636,3.676,3.6761,3.6762,3.6818,3.6819,3.682,3.6796,3.6795,3.6793,3.6791,3.6853,3.6857,3.686,0,0,0,0,0,0,0,0,0,0,0,0,0,3.669,3.6637,3.676,3.6757,3.6757,3.6818,3.6819,3.682,3.6797,3.6795,3.6793,3.6791,3.6852,3.6856,3.6861,3.6929,0,0,3.6874,3.6876,0,0,0,0,0,0,0,0,3.6687,3.6695,3.6757,3.6757,3.6758,3.6798,3.6797,3.6856,3.6797,3.6782,3.6792,3.679,3.6837,3.6843,3.6858,3.6932,3.6934,3.6875,3.6877,3.6879,3.688,0,0,0,0,0,0,0,3.6683,3.6692,3.6783,3.6758,3.6758,3.6754,3.676,3.6808,3.682,3.6783,3.6781,3.6788,3.6837,3.6854,3.686,3.6935,3.6874,3.6878,3.6881,3.6883,3.707,3.7072,0,0,0,0,0,0,3.6679,3.6689,3.6781,3.6785,3.6716,3.6758,3.6764,3.6787,3.682,3.6823,3.679,3.6787,3.6848,3.6854,3.6862,3.6944,3.6879,3.6883,3.6886,3.7068,3.707,3.7073,0,0,0,0,0,0,3.6676,3.6687,3.6779,3.6737,3.6748,3.6762,3.6788,3.6789,3.6806,3.6825,3.6828,3.6805,3.6846,3.6855,3.6913,3.6946,3.6885,3.6889,3.7065,3.7068,3.7072,3.711,0,0,0,0,0,0,3.6672,3.6686,3.6711,3.6737,3.675,3.6828,3.679,3.6792,3.6813,3.681,3.684,3.6843,3.6845,3.6906,3.6917,3.6951,3.6893,3.7062,3.7066,3.7071,3.7106,3.7114,3.7121,0,0,0,0,0,3.6668,3.672,3.6712,3.6724,3.6782,3.683,3.6837,3.6838,3.6816,3.6842,3.6855,3.6842,3.6941,3.6912,3.6924,3.696,3.706,3.7065,3.707,3.7102,3.7112,3.7121,0,0,0,0,0,0,3.6697,3.6723,3.6715,3.6777,3.6801,3.6826,3.6858,3.6849,3.6881,3.6877,3.6878,3.6885,3.6944,3.6958,3.6925,3.7029,3.6997,3.7005,3.7017,3.7027,3.7035,3.703,3.6896,0,0,0,0,0,3.6711,3.6747,3.6768,3.682,3.6833,3.6844,3.6865,3.6864,3.6889,3.69,3.6916,3.6943,3.698,3.7005,3.704,3.7108,3.7115,3.7139,3.7147,3.7153,3.716,3.7198,3.721,3.709,3.709,3.709,0,0,3.674,3.6758,3.6781,3.6827,3.6845,3.6884,3.6852,3.6894,3.6923,3.6906,3.6961,3.6975,3.7005,3.7068,3.7096,3.7081,3.7195,3.716,3.7165,3.7168,3.7205,3.7216,3.7226,3.7094,3.7093,3.7093,0,0,3.6811,3.6828,3.6874,3.6894,3.6923,3.693,3.6941,3.6968,3.6976,3.7031,3.7019,3.7055,3.7119,3.7141,3.716,3.7243,3.7233,3.7255,3.7296,3.7333,3.7343,3.7351,3.7381,3.7392,3.7261,3.7261,3.7261,0,3.6843,3.6899,3.6899,3.6942,3.6963,3.695,3.6998,3.7017,3.7057,3.7072,3.7054,3.7135,3.7154,3.7223,3.7243,3.726,3.7274,3.725,3.7341,3.7349,3.7357,3.7386,3.7397,3.7264,3.7264,3.7263,3.7263,0,3.6937,3.6977,3.7011,3.7048,3.7074,3.7119,3.7127,3.7153,3.7151,3.716,3.7218,3.7241,3.7281,3.7297,3.7295,3.7367,3.7356,3.734,3.7308,3.7371,3.7398,3.7409,3.7267,3.7267,3.7266,3.7265,0,0,3.7027,3.7066,3.7078,3.7096,3.7128,3.7159,3.7204,3.7243,3.7266,3.7294,3.7333,3.7388,3.7374,3.7396,3.7397,3.743,3.7495,3.741,3.7411,3.7425,3.7576,3.7588,3.7601,3.7489,3.7491,3.7493,3.7574,0,3.7101,3.7179,3.7182,3.7254,3.7291,3.728,3.732,3.7345,3.7356,3.739,3.7403,3.7442,3.742,3.7434,3.7466,3.748,3.7526,3.7475,3.7526,3.7528,3.7518,3.7615,3.7627,3.7702,3.7584,3.7586,3.7588,0,3.7197,3.7228,3.7303,3.7331,3.7347,3.7383,3.7419,3.7452,3.7481,3.7487,3.7513,3.751,3.7558,3.7525,3.7593,3.7558,3.758,3.7591,3.7594,3.7598,3.7561,3.7622,3.7726,3.7737,3.7604,3.7603,3.7602,0,3.7255,3.7316,3.7369,3.7385,3.7419,3.7444,3.746,3.7487,3.751,3.7543,3.7559,3.7597,3.7618,3.7649,3.7657,3.7632,3.7725,3.7693,3.7732,3.7732,3.7751,3.775,3.786,3.7766,3.7766,3.7766,3.7765,0,3.7337,3.7384,3.7396,3.7429,3.7482,3.7485,3.7538,3.7552,3.7577,3.7613,3.7607,3.7642,3.765,3.7687,3.7694,3.775,3.776,3.7767,3.7768,3.7767,3.7766,3.7781,3.7775,3.7769,3.7768,3.7767,3.7767,0,3.741,3.742,3.7477,3.7505,3.7514,3.7551,3.7576,3.7608,3.7619,3.7666,3.7677,3.7695,3.7738,3.7749,3.7802,3.7806,3.7872,3.7868,3.7862,3.7862,3.79,3.7897,3.8024,3.8041,3.7936,3.7937,3.7937,0,3.7461,3.7497,3.7529,3.7552,3.7569,3.7607,3.7632,3.7638,3.7664,3.77,3.7729,3.7772,3.7806,3.7876,3.7895,3.7935,3.7932,3.7974,3.7938,3.7937,3.7933,3.7931,3.7935,3.7981,3.7982,3.7983,3.7984,0,3.7551,3.7555,3.7589,3.7626,3.7656,3.7685,3.7714,3.7734,3.7745,3.7774,3.7818,3.7845,3.7899,3.7942,3.7983,3.8001,3.7995,3.7995,3.8006,3.8005,3.8,3.8004,3.788,3.7992,3.7991,3.799,3.799,3.799,3.7615,3.7647,3.7674,3.7714,3.7736,3.7763,3.7795,3.781,3.7847,3.789,3.7892,3.7941,3.7971,3.8026,3.8046,3.8085,3.8072,3.8089,3.8093,3.8097,3.81,3.7994,3.8093,3.8092,3.8092,3.8092,3.8092,0,3.7705,3.7722,3.7759,3.7799,3.783,3.7821,3.7853,3.7881,3.7923,3.7951,3.7985,3.8037,3.8079,3.8101,3.8144,3.8171,3.8169,3.8182,3.818,3.8184,3.8109,3.8095,3.8183,3.8183,3.8183,3.8183,3.8183,3.8182,3.7755,3.7808,3.7816,3.7881,3.7899,3.7945,3.7964,3.799,3.8013,3.8071,3.8105,3.8119,3.8146,3.8191,3.823,3.8236,3.8252,3.8266,3.827,3.8199,3.8189,3.8181,3.8167,3.8269,3.8269,3.8343,3.8343,3.8344]},{"header":{"parameterUnit":"m.s-1","parameterCategory":1,"la1":30.2991,"la2":30.254,"lo1":-89.0895,"lo2":-89.0444,"dy":0.0017,"dx":0.0017,"nx":28,"ny":28,"refTime":"2024-07-05T03:00:00:Z","depth":0,"parameterNumber":3,"parameterNumberName":"V-component_of_WINDS"},"data":[0,0,0,0,0,0,0,0,0,0,0,0,0,0,0,0,0,0,0,0,0,0,0,0,0,0,0,0,0,0,0,0,0,0,0,0,0,0,0,0,0,0,0,0,0,0,0,0,0,0,0,0,0,0,0,0,0,0,-1.1299,-1.1301,0,-1.142,-1.1421,-1.1422,-1.1435,-1.1434,-1.1433,-1.1431,-1.1559,-1.1563,-1.1568,0,0,0,0,0,0,0,0,0,0,0,0,0,-1.1086,-1.1089,-1.1299,-1.1301,-1.1302,-1.1419,-1.1421,-1.1423,-1.1435,-1.1434,-1.1432,-1.1431,-1.1557,-1.1563,-1.1568,0,0,0,0,0,0,0,0,0,0,0,0,0,-1.1189,-1.1091,-1.1299,-1.1323,-1.1326,-1.1419,-1.1421,-1.1423,-1.1436,-1.1434,-1.1432,-1.143,-1.1555,-1.1562,-1.1569,-1.1648,0,0,-1.159,-1.1593,0,0,0,0,0,0,0,0,-1.1183,-1.1197,-1.1318,-1.1321,-1.1325,-1.141,-1.1392,-1.1499,-1.1436,-1.1394,-1.1431,-1.1429,-1.1511,-1.1521,-1.1548,-1.1654,-1.1659,-1.159,-1.1594,-1.1597,-1.1599,0,0,0,0,0,0,0,-1.1176,-1.1192,-1.1347,-1.1319,-1.1324,-1.1329,-1.1341,-1.1412,-1.1462,-1.1398,-1.1399,-1.1413,-1.1513,-1.1542,-1.1551,-1.1661,-1.159,-1.1596,-1.16,-1.1603,-1.1839,-1.1841,0,0,0,0,0,0,-1.1164,-1.1186,-1.1343,-1.1351,-1.1248,-1.1334,-1.1348,-1.1385,-1.1461,-1.1471,-1.1414,-1.1413,-1.1531,-1.1543,-1.1556,-1.1654,-1.1597,-1.1604,-1.1607,-1.1837,-1.1839,-1.1842,0,0,0,0,0,0,-1.1159,-1.1178,-1.1338,-1.1269,-1.1289,-1.134,-1.1381,-1.1388,-1.1417,-1.1473,-1.1483,-1.1434,-1.153,-1.1546,-1.1625,-1.1659,-1.1607,-1.1613,-1.1834,-1.1838,-1.1841,-1.185,0,0,0,0,0,0,-1.1153,-1.1176,-1.1206,-1.1269,-1.1293,-1.1404,-1.1383,-1.1392,-1.1428,-1.1428,-1.1495,-1.1504,-1.153,-1.1615,-1.1632,-1.1667,-1.1618,-1.1831,-1.1836,-1.1839,-1.1847,-1.1854,-1.1859,0,0,0,0,0,-1.1145,-1.1204,-1.1207,-1.1226,-1.1331,-1.1406,-1.142,-1.1447,-1.1431,-1.1462,-1.1498,-1.1502,-1.1652,-1.1622,-1.1642,-1.168,-1.1829,-1.1834,-1.1839,-1.1845,-1.1852,-1.1859,0,0,0,0,0,0,-1.1145,-1.1213,-1.1217,-1.1298,-1.1346,-1.1408,-1.1447,-1.1454,-1.1509,-1.1506,-1.1539,-1.1554,-1.1631,-1.1664,-1.1629,-1.1761,-1.1739,-1.1748,-1.1737,-1.1745,-1.175,-1.1741,-1.1624,0,0,0,0,0,-1.1154,-1.1207,-1.1265,-1.1331,-1.1355,-1.1397,-1.1431,-1.1447,-1.1499,-1.152,-1.1562,-1.1613,-1.1672,-1.171,-1.1767,-1.1852,-1.1867,-1.1888,-1.1893,-1.1898,-1.1906,-1.1954,-1.1964,-1.1858,-1.1858,-1.1858,0,0,-1.1173,-1.1217,-1.1249,-1.1332,-1.1371,-1.1427,-1.1414,-1.1474,-1.1517,-1.153,-1.1606,-1.1639,-1.1698,-1.178,-1.1819,-1.1809,-1.1938,-1.1904,-1.1907,-1.1913,-1.196,-1.197,-1.1979,-1.1861,-1.1861,-1.186,0,0,-1.1238,-1.1276,-1.1335,-1.1375,-1.1434,-1.1461,-1.1476,-1.1537,-1.1559,-1.1636,-1.1647,-1.1699,-1.1799,-1.1841,-1.1876,-1.1957,-1.1963,-1.1975,-1.2006,-1.2052,-1.206,-1.2068,-1.2098,-1.2108,-1.1982,-1.1982,-1.1982,0,-1.1255,-1.1339,-1.1365,-1.1425,-1.1462,-1.1474,-1.1536,-1.1573,-1.1648,-1.1674,-1.1662,-1.1789,-1.183,-1.1922,-1.1942,-1.1969,-1.1988,-1.1967,-1.2057,-1.2065,-1.2072,-1.2101,-1.2112,-1.1983,-1.1983,-1.1983,-1.1983,0,-1.1358,-1.1416,-1.1457,-1.1528,-1.1569,-1.1629,-1.1666,-1.1705,-1.1719,-1.1748,-1.1827,-1.1877,-1.1944,-1.1967,-1.1982,-1.2063,-1.2055,-1.205,-1.2029,-1.2083,-1.211,-1.2122,-1.1985,-1.1984,-1.1984,-1.1984,0,0,-1.1425,-1.1509,-1.1524,-1.1557,-1.1623,-1.167,-1.1731,-1.1796,-1.1829,-1.1881,-1.1934,-1.2019,-1.2015,-1.2054,-1.2073,-1.2114,-1.2176,-1.2104,-1.2106,-1.2116,-1.2269,-1.2273,-1.2285,-1.218,-1.2182,-1.2184,-1.2264,0,-1.1497,-1.1605,-1.1631,-1.1725,-1.1779,-1.1793,-1.1847,-1.1894,-1.1923,-1.1976,-1.2009,-1.2068,-1.2058,-1.2081,-1.2122,-1.2159,-1.2207,-1.2154,-1.2231,-1.2234,-1.2216,-1.2299,-1.2304,-1.2377,-1.2275,-1.2277,-1.2278,0,-1.1596,-1.1649,-1.1747,-1.1807,-1.1831,-1.1878,-1.194,-1.199,-1.2044,-1.2063,-1.2107,-1.2122,-1.2188,-1.2164,-1.2256,-1.2219,-1.2253,-1.2276,-1.2279,-1.2288,-1.2259,-1.2311,-1.2401,-1.2412,-1.2295,-1.2294,-1.2293,0,-1.1636,-1.1731,-1.1803,-1.183,-1.1902,-1.1935,-1.1967,-1.2019,-1.2057,-1.2112,-1.2137,-1.2199,-1.2233,-1.2282,-1.2314,-1.2293,-1.2404,-1.2382,-1.2423,-1.2422,-1.2446,-1.2444,-1.2543,-1.2466,-1.2466,-1.2466,-1.2466,0,-1.1714,-1.1774,-1.1822,-1.1866,-1.1934,-1.1964,-1.2031,-1.2063,-1.211,-1.2161,-1.2177,-1.2225,-1.2265,-1.2319,-1.2345,-1.2418,-1.2433,-1.2451,-1.2457,-1.245,-1.2448,-1.2473,-1.2469,-1.2469,-1.2468,-1.2468,-1.2467,0,-1.177,-1.1804,-1.1883,-1.1944,-1.1961,-1.2008,-1.2061,-1.2105,-1.2135,-1.22,-1.2217,-1.2265,-1.2329,-1.2366,-1.2448,-1.2465,-1.2547,-1.255,-1.2528,-1.2531,-1.257,-1.2566,-1.2688,-1.2706,-1.2617,-1.2618,-1.2619,0,-1.1818,-1.1864,-1.193,-1.1965,-1.1997,-1.2053,-1.2091,-1.2123,-1.2162,-1.2228,-1.2265,-1.233,-1.2384,-1.2487,-1.253,-1.2593,-1.2598,-1.2637,-1.2608,-1.2599,-1.26,-1.2597,-1.2602,-1.2642,-1.2643,-1.2644,-1.2644,0,-1.19,-1.1914,-1.1968,-1.2028,-1.2073,-1.2122,-1.2171,-1.2199,-1.2239,-1.2283,-1.2349,-1.2391,-1.2474,-1.2539,-1.2605,-1.264,-1.2649,-1.2653,-1.2666,-1.2659,-1.2644,-1.2654,-1.2542,-1.265,-1.265,-1.2649,-1.2649,-1.2649,-1.1954,-1.1996,-1.2048,-1.2108,-1.2148,-1.2193,-1.2238,-1.2273,-1.2328,-1.2397,-1.2413,-1.2482,-1.2537,-1.2627,-1.2663,-1.2719,-1.2712,-1.273,-1.2735,-1.2739,-1.2741,-1.2635,-1.2731,-1.2731,-1.2731,-1.273,-1.273,0,-1.2037,-1.2071,-1.2126,-1.2193,-1.2241,-1.2244,-1.2298,-1.2338,-1.2399,-1.2448,-1.2501,-1.2577,-1.264,-1.2688,-1.2753,-1.2789,-1.2795,-1.2805,-1.2803,-1.2811,-1.2743,-1.2725,-1.2799,-1.2799,-1.2799,-1.2799,-1.2799,-1.2799,-1.2086,-1.2157,-1.2178,-1.227,-1.2305,-1.2372,-1.2403,-1.2445,-1.2485,-1.2568,-1.2621,-1.2651,-1.27,-1.2769,-1.2828,-1.284,-1.2864,-1.2874,-1.2887,-1.2823,-1.2815,-1.2808,-1.2792,-1.2878,-1.2878,-1.295,-1.2951,-1.2951]}]]